Regional Weather Roundup
Issued by NWS Charleston, SC

Current Version | Previous Version | Graphics & Text | Print | Product List | Glossary On
Versions: 1 2 3 4 5 6 7 8 9 10 11 12 13 14 15 16 17 18 19 20 21 22 23 24 25 26 27 28 29 30 31 32 33 34 35 36 37 38 39 40 41 42 43 44 45 46 47 48 49 50
007 ASUS42 KCHS 270128 RWRCHS REGIONAL WEATHER ROUNDUP NATIONAL WEATHER SERVICE CHARLESTON SC 900 PM EDT THU MAY 26 2016 NOTE: "FAIR" INDICATES FEW OR NO CLOUDS BELOW 12,000 FEET WITH NO SIGNIFICANT WEATHER AND/OR OBSTRUCTIONS TO VISIBILITY. NOT ALL STATIONS ARE QUALITY CONTROLLED. USE DATA WITH CAUTION... ESPECIALLY DEWPOINT OBSERVATIONS. SCZ027-030-031-034>040-042>050-270200- ...SOUTHEAST SOUTH CAROLINA... CITY SKY/WX TMP DP RH WIND PRES REMARKS N CHARLESTON PTCLDY 75 62 64 S8 30.13R WATERFRONT PRK N/A 76 67 73 SE7 30.10R MOUNT PLEASANT FAIR 72 64 78 CALM 30.14 JOHNS ISLAND FAIR 73 66 78 CALM 30.14 PINOPOLIS N/A 79 59 50 VRB2 30.05R MONCKS CORNER FAIR 72 55 56 S5 30.13 SUMMERVILLE NOT AVBL BEAUFORT MCAS CLEAR 74 65 73 CALM 30.13R BEAUFORT ARPT NOT AVBL HILTON HEAD IS CLEAR 73 64 73 CALM 30.14R WALTERBORO CLEAR 73 59 60 S5 30.14 ALLENDALE FAIR 75 59 57 SE6 30.11 ...SOUTHERN MIDLANDS AND PEE DEE... CITY SKY/WX TMP DP RH WIND PRES REMARKS GEORGETOWN NOT AVBL KINGSTREE NOT AVBL ORANGEBURG CLEAR 78 62 57 S10 30.11R BARNWELL NOT AVBL AIKEN NOT AVBL MANNING FAIR 73 55 53 S5 30.12 COLUMBIA PTCLDY 81 62 52 S6 30.08R SUMTER CLEAR 79 63 57 SE8 30.07R FLORENCE CLEAR 78 60 53 S9 30.11R MYRTLE BEACH CLEAR 75 61 60 S10 30.15R N MYRTLE BEACH CLEAR 75 66 73 S7 30.13R $$ GAZ063-065-086>088-099>101-113>116-118-119-134>141-150-270200- ...SOUTHEAST GEORGIA... CITY SKY/WX TMP DP RH WIND PRES REMARKS SAVANNAH ARPT PTCLDY 75 62 64 SE7 30.12R HUNTER AAF CLEAR 74 65 74 SE5 30.10R FORT STEWART CLEAR 73 60 62 CALM 30.10R STATESBORO CLEAR 77 58 52 SE5 30.12R SYLVANIA CLEAR 77 59 53 CALM 30.13R CLAXTON FAIR 75 57 54 E3 30.12R ...CSRA...CENTRAL AND FAR SOUTHEAST GEORGIA... CITY SKY/WX TMP DP RH WIND PRES REMARKS THOMSON MOCLDY 75 70 82 CALM 30.14R AUGUSTA-BUSH PTCLDY 76 65 68 SE7 30.07R AUGUSTA-DANIEL PTCLDY 82 64 54 SE6 30.09R SWAINSBORO CLOUDY 79 61 53 SE9 30.11R VIDALIA CLEAR 77 57 50 SE8 30.12R EASTMAN CLOUDY 80 63 55 S3 30.12R HAZLEHURST FAIR 79 58 48 CALM 30.10R ALMA CLEAR 76 57 51 SE5 30.10R WAYCROSS CLEAR 75 59 55 SE6 30.11R JESUP FAIR 70 59 68 SE3 30.12R BAXLEY FAIR 77 52 41 SE3 30.11R BRUNSWICK CLEAR 73 68 83 CALM 30.13R SAINT SIMONS CLEAR 75 63 66 E9 30.11R $$ SCZ027-028-034-036>038-045-046-048>050-GAZ119-141-270200- ...LAKE AND SUPPLEMENTAL COASTAL OBSERVATIONS... STATION/POSITION TIME TEMP WIND PRES WAVE SWELL AIR SEA DIR/SP/G HT/PER HT/PER/DIR (UTC) (F) (DEG/KT/KT) (MB) (FT/S) (FT/S/D) WINYAH BAY 0000 76 180/ 6 1019.0 LAKE MURRAY 0000 83 150/ 7/ 8 1017.6R ACE BASIN NERRS 0000 76 150/ 2 1020.0S FORT PULASKI 0100 1020.6R SAPELO ISLAND 0100 74 110/ 2 1020.0R $$ ANZ835-935-AMZ111-154-330-350-352-354-370-450-454-472-270200- ...C-MAN AND BUOY OBSERVATIONS... STATION/POSITION TIME TEMP WIND PRES WAVE SWELL AIR SEA DIR/SP/G HT/PER HT/PER/DIR (UTC) (F) (DEG/KT/KT) (MB) (FT/S) (FT/S/D) BUOY 41004 0050 78 78 120/ 10/ 12 1019.8R 2/ 9 2/ 9 BUOY 41008 0050 78 78 130/ 10/ 12 1019.8 2/ 8 2/100/ 8 FOLLY BEACH CMAN 0100 76 150/ 7/ 7 1020.5R CAPERS NEARSHORE 0008 76 78 160/ 8/ 10 1019.8R FRIPP NEARSHORE 0108 76 78 150/ 8/ 12 1019.6R STATION/POSITION TIME TEMP WIND PRES WAVE SWELL AIR SEA DIR/SP/G HT/PER HT/PER/DIR (UTC) (F) (DEG/KT/KT) (MB) (FT/S) (FT/S/D) 5E ST. MARYS GA 0101 78 N/A 3/ 7 FRYING PAN BUOY 0100 78 77 140/ 10/ 14 1020.3R BUOY 41025 0050 76 74 180/ 12/ 14 1020.8 2/ 8 2/120/ 8 CAPE LOOKOUT NC 0100 74 180/ 8/ 9 1020.7R BUOY 41002 0050 76 78 70/ 14/ 16 1020.8 3/ 4 2/ 90/ 8 BUOY 41010 0020 76 79 80/ 16/ 17 1018.3S ST AUGUSTINE FL 0100 77 80 80/ 12/ 14 1020.1R $$

USA.gov is the U.S. government's official web portal to all federal, state and local government web resources and services.